[[{"header":{"parameterUnit":"m.s-1","parameterCategory":1,"la1":30.2991,"la2":30.254,"lo1":-89.0895,"lo2":-89.0444,"dy":0.0017,"dx":0.0017,"nx":28,"ny":28,"refTime":"2024-02-14T03:00:00:Z","depth":0,"parameterNumber":2,"parameterNumberName":"U-component_of_WINDS"},"data":[0,0,0,0,0,0,0,0,0,0,0,0,0,0,0,0,0,0,0,0,0,0,0,0,0,0,0,0,0,0,0,0,0,0,0,0,0,0,0,0,0,0,0,0,0,0,0,0,0,0,0,0,0,0,0,0,0,0,-3.392,-3.392,0,-3.3913,-3.3913,-3.3913,-3.3819,-3.3817,-3.3814,-3.3812,-3.3807,-3.3809,-3.3812,0,0,0,0,0,0,0,0,0,0,0,0,0,-3.3856,-3.3858,-3.392,-3.392,-3.392,-3.3913,-3.3913,-3.3913,-3.3819,-3.3816,-3.3814,-3.3811,-3.3807,-3.3809,-3.3812,0,0,0,0,0,0,0,0,0,0,0,0,0,-3.387,-3.3859,-3.392,-3.3872,-3.3868,-3.3913,-3.3913,-3.3913,-3.382,-3.3816,-3.3813,-3.3809,-3.3806,-3.3809,-3.3812,-3.3903,0,0,-3.3822,-3.3823,0,0,0,0,0,0,0,0,-3.387,-3.3873,-3.388,-3.3876,-3.3871,-3.3863,-3.3889,-3.391,-3.3821,-3.3838,-3.3812,-3.3808,-3.3829,-3.383,-3.3837,-3.3903,-3.3903,-3.3822,-3.3824,-3.3825,-3.3826,0,0,0,0,0,0,0,-3.3869,-3.3873,-3.3917,-3.388,-3.3875,-3.3853,-3.3851,-3.3892,-3.3854,-3.3837,-3.383,-3.383,-3.3826,-3.3834,-3.3836,-3.3903,-3.3822,-3.3825,-3.3827,-3.3828,-3.4046,-3.405,0,0,0,0,0,0,-3.3874,-3.3872,-3.3918,-3.3917,-3.3861,-3.3857,-3.3854,-3.3869,-3.3853,-3.3847,-3.3833,-3.3826,-3.383,-3.3832,-3.3835,-3.3942,-3.3825,-3.3828,-3.383,-3.4042,-3.4047,-3.4051,0,0,0,0,0,0,-3.3873,-3.3879,-3.3918,-3.3893,-3.3896,-3.3861,-3.3879,-3.3871,-3.3879,-3.385,-3.3844,-3.3848,-3.3827,-3.3831,-3.3887,-3.3941,-3.383,-3.3832,-3.4038,-3.4044,-3.4049,-3.4157,0,0,0,0,0,0,-3.3872,-3.3879,-3.3912,-3.3894,-3.3898,-3.3969,-3.3882,-3.3874,-3.3884,-3.3874,-3.3863,-3.3857,-3.3825,-3.3883,-3.3891,-3.3943,-3.3835,-3.4033,-3.404,-3.4047,-3.4148,-3.4166,-3.418,0,0,0,0,0,-3.387,-3.3943,-3.3914,-3.392,-3.3939,-3.3972,-3.3974,-3.3935,-3.3889,-3.3923,-3.3905,-3.3858,-3.3934,-3.389,-3.3897,-3.3952,-3.4029,-3.4038,-3.4047,-3.4141,-3.4162,-3.418,0,0,0,0,0,0,-3.3968,-3.394,-3.3908,-3.3977,-3.3978,-3.3956,-3.3998,-3.3958,-3.3973,-3.3963,-3.3914,-3.3913,-3.3977,-3.397,-3.3921,-3.404,-3.3973,-3.3984,-3.4043,-3.4063,-3.4078,-3.4079,-3.3838,0,0,0,0,0,-3.3998,-3.4027,-3.4001,-3.4065,-3.4067,-3.4033,-3.4046,-3.4016,-3.4015,-3.4015,-3.4001,-3.4003,-3.4027,-3.4044,-3.4065,-3.4147,-3.4144,-3.4188,-3.4204,-3.4218,-3.4228,-3.4273,-3.4293,-3.408,-3.408,-3.408,0,0,-3.406,-3.4048,-3.4069,-3.4084,-3.4081,-3.4114,-3.4033,-3.407,-3.4095,-3.402,-3.4073,-3.4064,-3.4063,-3.4133,-3.4163,-3.4129,-3.4286,-3.4229,-3.424,-3.4243,-3.4284,-3.4304,-3.4322,-3.4086,-3.4085,-3.4084,0,0,-3.419,-3.4183,-3.4236,-3.4235,-3.4232,-3.4209,-3.4222,-3.4207,-3.4198,-3.425,-3.4195,-3.4224,-3.4267,-3.4269,-3.4276,-3.4409,-3.4367,-3.4417,-3.4501,-3.4546,-3.4563,-3.4577,-3.4626,-3.4645,-3.4427,-3.4428,-3.4428,0,-3.4268,-3.4313,-3.4269,-3.431,-3.432,-3.4254,-3.4309,-3.431,-3.4314,-3.4323,-3.4284,-3.4338,-3.4332,-3.4403,-3.4436,-3.4443,-3.4458,-3.4418,-3.4563,-3.4578,-3.4591,-3.4637,-3.4656,-3.4434,-3.4433,-3.4432,-3.4432,0,-3.441,-3.4443,-3.4486,-3.4492,-3.4506,-3.4554,-3.4519,-3.4539,-3.4508,-3.449,-3.4545,-3.4537,-3.4555,-3.457,-3.454,-3.4638,-3.4617,-3.4572,-3.4503,-3.4618,-3.4661,-3.4678,-3.4443,-3.444,-3.4439,-3.4437,0,0,-3.46,-3.4582,-3.4599,-3.4602,-3.4594,-3.4619,-3.4666,-3.4684,-3.4702,-3.4708,-3.4747,-3.4786,-3.4744,-3.4752,-3.4722,-3.4761,-3.487,-3.4712,-3.4711,-3.4743,-3.4979,-3.5014,-3.5035,-3.4842,-3.4845,-3.4848,-3.498,0,-3.4727,-3.4803,-3.4766,-3.4848,-3.4879,-3.4818,-3.4858,-3.4859,-3.4844,-3.4869,-3.4853,-3.4882,-3.4824,-3.4829,-3.4865,-3.4849,-3.4917,-3.4839,-3.4879,-3.4881,-3.4882,-3.5057,-3.5093,-3.5218,-3.4996,-3.4999,-3.5001,0,-3.4883,-3.4896,-3.4981,-3.497,-3.4981,-3.5018,-3.5033,-3.5057,-3.5058,-3.5044,-3.5055,-3.5016,-3.5063,-3.4995,-3.5059,-3.5007,-3.5022,-3.5017,-3.5021,-3.5024,-3.4949,-3.5066,-3.5257,-3.5277,-3.5027,-3.5025,-3.5023,0,-3.5016,-3.5054,-3.511,-3.5114,-3.5102,-3.513,-3.5126,-3.5123,-3.5137,-3.5151,-3.516,-3.5179,-3.519,-3.5206,-3.5175,-3.5128,-3.5245,-3.5174,-3.5236,-3.5238,-3.5264,-3.5263,-3.5461,-3.5272,-3.5272,-3.5271,-3.5271,0,-3.5161,-3.5216,-3.517,-3.5205,-3.5265,-3.5223,-3.5284,-3.5274,-3.5272,-3.5305,-3.5254,-3.5286,-3.5243,-3.5271,-3.5248,-3.5306,-3.5311,-3.5302,-3.5296,-3.5308,-3.5309,-3.5317,-3.5308,-3.5276,-3.5275,-3.5274,-3.5273,0,-3.5319,-3.529,-3.5348,-3.5332,-3.533,-3.5375,-3.5362,-3.5395,-3.5376,-3.5419,-3.5427,-3.5399,-3.543,-3.5401,-3.5431,-3.5415,-3.5493,-3.5473,-3.5493,-3.5488,-3.5553,-3.5548,-3.5764,-3.5791,-3.5583,-3.5585,-3.5587,0,-3.5414,-3.5455,-3.5444,-3.5462,-3.5462,-3.5492,-3.5506,-3.5467,-3.5484,-3.5489,-3.5522,-3.5549,-3.5568,-3.5622,-3.5605,-3.5628,-3.5609,-3.5684,-3.5613,-3.5624,-3.5612,-3.5611,-3.5616,-3.5698,-3.5701,-3.5703,-3.5704,0,-3.5586,-3.557,-3.5592,-3.5611,-3.5629,-3.5642,-3.565,-3.5669,-3.5628,-3.5651,-3.5682,-3.5698,-3.5729,-3.5757,-3.5775,-3.5773,-3.5734,-3.5727,-3.5743,-3.5756,-3.5766,-3.5763,-3.5534,-3.5722,-3.5721,-3.5719,-3.5718,-3.5718,-3.5716,-3.575,-3.5749,-3.5776,-3.5778,-3.5788,-3.5818,-3.5805,-3.583,-3.5852,-3.5827,-3.5866,-3.5868,-3.5889,-3.5892,-3.5923,-3.5892,-3.5915,-3.5921,-3.5927,-3.5937,-3.5761,-3.5926,-3.5926,-3.5925,-3.5925,-3.5924,0,-3.5887,-3.5883,-3.5908,-3.5922,-3.5945,-3.5904,-3.5913,-3.5934,-3.5969,-3.5974,-3.5994,-3.6032,-3.606,-3.6046,-3.6071,-3.6098,-3.6081,-3.6106,-3.6104,-3.6105,-3.5963,-3.5947,-3.612,-3.612,-3.612,-3.612,-3.612,-3.612,-3.5978,-3.6034,-3.6019,-3.6077,-3.6073,-3.6111,-3.6119,-3.6129,-3.6132,-3.6177,-3.6199,-3.619,-3.6188,-3.6213,-3.6237,-3.6233,-3.6245,-3.6277,-3.6267,-3.6134,-3.6115,-3.6096,-3.6081,-3.628,-3.628,-3.6406,-3.6407,-3.6408]},{"header":{"parameterUnit":"m.s-1","parameterCategory":1,"la1":30.2991,"la2":30.254,"lo1":-89.0895,"lo2":-89.0444,"dy":0.0017,"dx":0.0017,"nx":28,"ny":28,"refTime":"2024-02-14T03:00:00:Z","depth":0,"parameterNumber":3,"parameterNumberName":"V-component_of_WINDS"},"data":[0,0,0,0,0,0,0,0,0,0,0,0,0,0,0,0,0,0,0,0,0,0,0,0,0,0,0,0,0,0,0,0,0,0,0,0,0,0,0,0,0,0,0,0,0,0,0,0,0,0,0,0,0,0,0,0,0,0,-0.0719,-0.0719,0,-0.0734,-0.0734,-0.0734,-0.0718,-0.0718,-0.0717,-0.0717,-0.0734,-0.0735,-0.0736,0,0,0,0,0,0,0,0,0,0,0,0,0,-0.0679,-0.068,-0.0719,-0.0719,-0.0719,-0.0734,-0.0734,-0.0734,-0.0718,-0.0718,-0.0717,-0.0716,-0.0733,-0.0735,-0.0736,0,0,0,0,0,0,0,0,0,0,0,0,0,-0.0695,-0.068,-0.0719,-0.0713,-0.0713,-0.0734,-0.0734,-0.0734,-0.0719,-0.0718,-0.0717,-0.0716,-0.0733,-0.0734,-0.0736,-0.0764,0,0,-0.0741,-0.0741,0,0,0,0,0,0,0,0,-0.0694,-0.0697,-0.0714,-0.0714,-0.0713,-0.0723,-0.0726,-0.0744,-0.0719,-0.0717,-0.0717,-0.0716,-0.0731,-0.0733,-0.0738,-0.0764,-0.0765,-0.0741,-0.0742,-0.0742,-0.0743,0,0,0,0,0,0,0,-0.0693,-0.0696,-0.0725,-0.0714,-0.0714,-0.071,-0.0712,-0.0729,-0.0729,-0.0717,-0.0716,-0.0717,-0.0731,-0.0736,-0.0738,-0.0765,-0.0741,-0.0742,-0.0743,-0.0744,-0.0816,-0.0817,0,0,0,0,0,0,-0.0692,-0.0695,-0.0724,-0.0725,-0.0701,-0.0712,-0.0713,-0.0721,-0.0729,-0.0729,-0.0718,-0.0717,-0.0734,-0.0736,-0.0738,-0.0772,-0.0742,-0.0744,-0.0745,-0.0815,-0.0816,-0.0817,0,0,0,0,0,0,-0.0692,-0.0695,-0.0724,-0.071,-0.0713,-0.0713,-0.0722,-0.0722,-0.0727,-0.073,-0.073,-0.0724,-0.0733,-0.0736,-0.0757,-0.0772,-0.0744,-0.0746,-0.0813,-0.0815,-0.0816,-0.0838,0,0,0,0,0,0,-0.069,-0.0695,-0.0705,-0.071,-0.0714,-0.0742,-0.0723,-0.0723,-0.073,-0.0728,-0.0735,-0.0735,-0.0733,-0.0755,-0.0759,-0.0774,-0.0747,-0.0812,-0.0814,-0.0816,-0.0836,-0.084,-0.0844,0,0,0,0,0,-0.0689,-0.0711,-0.0706,-0.071,-0.0727,-0.0743,-0.0745,-0.0742,-0.0731,-0.0741,-0.0743,-0.0735,-0.0769,-0.0757,-0.0761,-0.0777,-0.0811,-0.0814,-0.0816,-0.0835,-0.084,-0.0844,0,0,0,0,0,0,-0.0709,-0.0712,-0.0706,-0.073,-0.0736,-0.074,-0.0754,-0.0747,-0.0757,-0.0755,-0.075,-0.0752,-0.0775,-0.0778,-0.0764,-0.0804,-0.0789,-0.0792,-0.0802,-0.0806,-0.081,-0.081,-0.0748,0,0,0,0,0,-0.0716,-0.0729,-0.073,-0.0752,-0.0755,-0.0754,-0.0761,-0.0757,-0.0764,-0.0767,-0.077,-0.0777,-0.0789,-0.0798,-0.0809,-0.0836,-0.0838,-0.0848,-0.0852,-0.0855,-0.0859,-0.0873,-0.0879,-0.0824,-0.0824,-0.0824,0,0,-0.0731,-0.0734,-0.0743,-0.0756,-0.076,-0.0774,-0.0756,-0.0771,-0.0782,-0.0769,-0.0789,-0.0791,-0.0799,-0.0823,-0.0834,-0.0827,-0.0874,-0.0858,-0.0861,-0.0862,-0.0876,-0.0881,-0.0886,-0.0826,-0.0826,-0.0825,0,0,-0.0766,-0.0769,-0.0788,-0.0792,-0.0798,-0.0797,-0.0801,-0.0806,-0.0807,-0.0827,-0.0818,-0.083,-0.0851,-0.0857,-0.0863,-0.0898,-0.0892,-0.0902,-0.0922,-0.0937,-0.0941,-0.0945,-0.0959,-0.0963,-0.0905,-0.0905,-0.0905,0,-0.0785,-0.0804,-0.0798,-0.0814,-0.082,-0.0808,-0.0827,-0.0831,-0.0841,-0.0846,-0.0837,-0.0863,-0.0868,-0.0893,-0.0902,-0.0906,-0.0912,-0.0902,-0.0941,-0.0945,-0.0948,-0.0961,-0.0966,-0.0906,-0.0906,-0.0906,-0.0906,0,-0.0827,-0.084,-0.0854,-0.0864,-0.0871,-0.0889,-0.0885,-0.0894,-0.0889,-0.0889,-0.0909,-0.0913,-0.0926,-0.0931,-0.0927,-0.0956,-0.0951,-0.0941,-0.0926,-0.0955,-0.0967,-0.0972,-0.0908,-0.0908,-0.0907,-0.0907,0,0,-0.0877,-0.0881,-0.0887,-0.0891,-0.0896,-0.0907,-0.0923,-0.0934,-0.0942,-0.0949,-0.0963,-0.0981,-0.0972,-0.0978,-0.0974,-0.0987,-0.1016,-0.0976,-0.0976,-0.0984,-0.1049,-0.1057,-0.1063,-0.101,-0.1011,-0.1012,-0.1049,0,-0.0913,-0.0941,-0.0935,-0.0963,-0.0976,-0.0963,-0.0978,-0.0983,-0.0983,-0.0994,-0.0994,-0.1007,-0.0993,-0.0997,-0.1009,-0.101,-0.1029,-0.1007,-0.1025,-0.1025,-0.1025,-0.1069,-0.1078,-0.1113,-0.1053,-0.1054,-0.1054,0,-0.0959,-0.0967,-0.0996,-0.0999,-0.1004,-0.1017,-0.1026,-0.1037,-0.1042,-0.1041,-0.1048,-0.1041,-0.1058,-0.1041,-0.1064,-0.1049,-0.1056,-0.1057,-0.1058,-0.1061,-0.1043,-0.1075,-0.1123,-0.1129,-0.1062,-0.1061,-0.1061,0,-0.0994,-0.1011,-0.1031,-0.1035,-0.1038,-0.1048,-0.105,-0.1054,-0.1061,-0.1069,-0.1074,-0.1084,-0.109,-0.1099,-0.1095,-0.1083,-0.1119,-0.1102,-0.112,-0.112,-0.113,-0.113,-0.1182,-0.1131,-0.1131,-0.1131,-0.1131,0,-0.1035,-0.1054,-0.1047,-0.1059,-0.1079,-0.1072,-0.1093,-0.1093,-0.1097,-0.1109,-0.1099,-0.1111,-0.1105,-0.1117,-0.1114,-0.1134,-0.1137,-0.1137,-0.1136,-0.1139,-0.1139,-0.1145,-0.1143,-0.1133,-0.1132,-0.1132,-0.1132,0,-0.1079,-0.1074,-0.1095,-0.1097,-0.1097,-0.1112,-0.1114,-0.1125,-0.1124,-0.114,-0.1143,-0.1141,-0.1154,-0.115,-0.1165,-0.1163,-0.1189,-0.1184,-0.1187,-0.1186,-0.1205,-0.1204,-0.1264,-0.1272,-0.1215,-0.1216,-0.1216,0,-0.1106,-0.112,-0.1123,-0.113,-0.1133,-0.1145,-0.1151,-0.1144,-0.1152,-0.1158,-0.1169,-0.1181,-0.1191,-0.1212,-0.1212,-0.1223,-0.122,-0.124,-0.1222,-0.1224,-0.1222,-0.1222,-0.1223,-0.1244,-0.1245,-0.1246,-0.1246,0,-0.1156,-0.1153,-0.1163,-0.1172,-0.118,-0.1187,-0.1193,-0.12,-0.1193,-0.1202,-0.1215,-0.1222,-0.1236,-0.1248,-0.1258,-0.1261,-0.1253,-0.1251,-0.1256,-0.126,-0.1262,-0.1262,-0.1199,-0.1251,-0.125,-0.125,-0.125,-0.1249,-0.1194,-0.1206,-0.1209,-0.122,-0.1224,-0.1229,-0.124,-0.1239,-0.125,-0.126,-0.1255,-0.127,-0.1275,-0.1287,-0.1291,-0.1302,-0.1295,-0.1302,-0.1304,-0.1306,-0.1309,-0.1258,-0.1304,-0.1304,-0.1304,-0.1304,-0.1304,0,-0.1244,-0.1246,-0.1256,-0.1264,-0.1273,-0.1263,-0.1269,-0.1277,-0.129,-0.1294,-0.1303,-0.1318,-0.133,-0.133,-0.1341,-0.135,-0.1347,-0.1354,-0.1354,-0.1355,-0.1315,-0.131,-0.1356,-0.1356,-0.1356,-0.1356,-0.1356,-0.1356,-0.1272,-0.1292,-0.1289,-0.131,-0.1311,-0.1325,-0.1329,-0.1335,-0.1338,-0.1355,-0.1364,-0.1363,-0.1366,-0.1377,-0.1387,-0.1387,-0.1392,-0.1401,-0.1399,-0.1362,-0.1357,-0.1352,-0.1348,-0.1401,-0.1401,-0.1438,-0.1439,-0.1439]}]]